Regional Weather Roundup
Issued by NWS Little Rock, AR

Home | Current Version | Previous Version | Text Only | Print | Product List | Glossary Off
Versions: 1 2 3 4 5 6 7 8 9 10 11 12 13 14 15 16 17 18 19 20 21 22 23 24 25 26 27 28 29 30 31 32 33 34 35 36 37 38 39 40 41 42 43 44 45 46 47 48 49 50

000
ASUS44 KLZK 200605
RWRLZK

WEATHER ROUNDUP FOR ARKANSAS
NATIONAL WEATHER SERVICE LITTLE ROCK AR
100 AM CDT SAT SEP 20 2014

NOTE: "FAIR" INDICATES FEW OR NO CLOUDS BELOW 12,000 FEET WITH NO
SIGNIFICANT WEATHER AND/OR OBSTRUCTIONS TO VISIBILITY.

ARZ001-003-010-029-200700-
NORTHWEST ARKANSAS

CITY           SKY/WX    TMP DP  RH WIND       PRES   REMARKS
FAYETTEVILLE   CLEAR     63  63 100 CALM      30.02F FOG
6HR MIN TEMP:  63; 6HR MAX TEMP:  75;

FORT SMITH     CLEAR     70  68  93 NE5       29.99F
6HR MIN TEMP:  70; 6HR MAX TEMP:  80;

HARRISON       CLEAR     66  65  96 E3        30.03F
6HR MIN TEMP:  65; 6HR MAX TEMP:  75;

BENTONVILLE    CLEAR     66  63  88 SE3       30.03S
6HR MIN TEMP:  66; 6HR MAX TEMP:  79;

ROGERS         CLEAR     68  64  87 SE6       30.03F
6HR MIN TEMP:  68; 6HR MAX TEMP:  77;

SILOAM SPGS    CLEAR     66  61  82 SE3       30.03S
6HR MIN TEMP:  66; 6HR MAX TEMP:  77;

HIGHFILL       CLEAR     67  65  93 CALM      30.02F
6HR MIN TEMP:  67; 6HR MAX TEMP:  76;

$$

ARZ004-005-016-200700-
NORTH CENTRAL ARKANSAS

CITY           SKY/WX    TMP DP  RH WIND       PRES   REMARKS
BATESVILLE     CLEAR     66  64  94 CALM      30.02F
6HR MIN TEMP:  64; 6HR MAX TEMP:  79;

FLIPPIN        CLEAR     64  59  82 CALM      30.02F
6HR MIN TEMP:  64; 6HR MAX TEMP:  79;

MTN HOME       CLEAR     66  64  93 SE3       30.02F
6HR MIN TEMP:  66; 6HR MAX TEMP:  73;

$$

ARZ040-041-200700-
WEST CENTRAL ARKANSAS

CITY           SKY/WX    TMP DP  RH WIND       PRES   REMARKS
MENA           CLOUDY    70  68  94 CALM      30.03S
MOUNT IDA      FOG       68  66  93 CALM      30.00S VSB 1/4
6HR MIN TEMP:  68; 6HR MAX TEMP:  77;

$$

ARZ009-017-025-026-028-200700-
NORTHEAST ARKANSAS

CITY           SKY/WX    TMP DP  RH WIND       PRES   REMARKS
CORNING          N/A     64  64 100 CALM      30.02F FOG
JONESBORO      CLEAR     66  65  96 CALM      30.01F
6HR MIN TEMP:  65; 6HR MAX TEMP:  75;

NEWPORT        CLEAR     67  65  93 W9        30.03S
6HR MIN TEMP:  66; 6HR MAX TEMP:  80; 6HR PCP: TRACE;

WALNUT RIDGE   CLEAR     66  63  88 CALM      30.01F
6HR MIN TEMP:  66; 6HR MAX TEMP:  79;

BLYTHEVILLE    CLEAR     67  66  97 E6        30.02F
6HR MIN TEMP:  66; 6HR MAX TEMP:  77;

$$

ARZ022-023-033-042-044-200700-
CENTRAL ARKANSAS

CITY           SKY/WX    TMP DP  RH WIND       PRES   REMARKS
LITTLE ROCK    CLEAR     71  67  87 CALM      30.01F
6HR MIN TEMP:  71; 6HR MAX TEMP:  82;

N LITTLE ROCK    N/A     70  68  92 S3        30.01F
6HR MIN TEMP:  70; 6HR MAX TEMP:  80;

JACKSONVILLE   CLEAR     67  66  97 CALM      30.01S
6HR MIN TEMP:  67; 6HR MAX TEMP:  80;

SEARCY         CLEAR     67  66  96 CALM      30.02S FOG
6HR MIN TEMP:  66; 6HR MAX TEMP:  80;

HOT SPRINGS    CLEAR     71  68  90 CALM      30.01F
6HR MIN TEMP:  70; 6HR MAX TEMP:  79;

RUSSELLVILLE   CLEAR     68  66  93 CALM      30.01F FOG
6HR MIN TEMP:  68; 6HR MAX TEMP:  77;

CLINTON        FAIR      64  64 100 CALM      30.03F FOG
$$

ARZ036-200700-
EAST ARKANSAS

CITY           SKY/WX    TMP DP  RH WIND       PRES   REMARKS
WEST MEMPHIS   CLEAR     68  68 100 CALM      30.00F
6HR MIN TEMP:  68; 6HR MAX TEMP:  76;

$$

ARZ050-053-066-070-073-200700-
SOUTHWEST ARKANSAS

CITY           SKY/WX    TMP DP  RH WIND       PRES   REMARKS
ARKADELPHIA    FOG       69  69 100 CALM      30.00F VSB 1/2
6HR MIN TEMP:  69; 6HR MAX TEMP:  80;

CAMDEN         CLEAR     68  66  94 CALM      29.99S FOG
TEXARKANA      CLEAR     70  70 100 CALM      29.99S FOG
6HR MIN TEMP:  69; 6HR MAX TEMP:  79;

EL DORADO      CLEAR     71  69  93 NE3       29.99F
6HR MIN TEMP:  70; 6HR MAX TEMP:  79;

DE QUEEN       PTCLDY    69  69 100 CALM      29.97F FOG
6HR MIN TEMP:  69; 6HR MAX TEMP:  79;

$$

ARZ056-057-069-200700-
SOUTHEAST ARKANSAS

CITY           SKY/WX    TMP DP  RH WIND       PRES   REMARKS
PINE BLUFF     CLEAR     69  66  90 CALM      30.00F
6HR MIN TEMP:  68; 6HR MAX TEMP:  80;

STUTTGART      CLEAR     70  64  83 CALM      30.01F
6HR MIN TEMP:  70; 6HR MAX TEMP:  81;

MONTICELLO     CLEAR     70  67  90 CALM      30.00S
6HR MIN TEMP:  70; 6HR MAX TEMP:  82;


$$




USA.gov is the U.S. government's official web portal to all federal, state and local government web resources and services.